Regional Weather Roundup
Issued by NWS Upton, NY

Current Version | Previous Version | Graphics & Text | Print | Product List | Glossary Off
Versions: 1 2 3 4 5 6 7 8 9 10 11 12 13 14 15 16 17 18 19 20 21 22 23 24 25 26 27 28 29 30 31 32 33 34 35 36 37 38 39 40 41 42 43 44 45 46 47 48 49 50

000
ASUS41 KOKX 012004
RWROKX

REGIONAL WEATHER ROUNDUP
NATIONAL WEATHER SERVICE NEW YORK NY
400 PM EDT TUE SEP 01 2015

NOTE: "FAIR" INDICATES FEW OR NO CLOUDS BELOW 12,000 FEET WITH NO
SIGNIFICANT WEATHER AND/OR OBSTRUCTIONS TO VISIBILITY.

NYZ071-072-176-178-NJZ106-104-012100-
NEW YORK CITY METRO AREA


CITY           SKY/WX    TMP DP  RH WIND       PRES   REMARKS
CENTRAL PARK   MOSUNNY   86  63  45 S8        30.04F
LAGUARDIA APRT MOSUNNY   86  64  47 S7        30.01F
KENNEDY INTL   MOSUNNY   83  65  54 SE12      30.03F
NEWARK/LIBERTY MOSUNNY   87  64  46 VRB5      30.01F
BRNX BOT. GARD   N/A     84  63  48 S9        30.03R
TETERBORO      MOSUNNY   88  58  36 CALM      30.00F
$$

NYZ177-179-078>081-012100-
LONG ISLAND NEW YORK

CITY           SKY/WX    TMP DP  RH WIND       PRES   REMARKS
FARMINGDALE    MOSUNNY   83  62  49 S10       30.04S
ISLIP          MOSUNNY   83  61  47 S9        30.02S
SHIRLEY        SUNNY     82  62  50 SE8       30.04F
WESTHAMPTON    SUNNY     82  58  43 SE9       30.05F
MONTAUK POINT    N/A     78  67  68 VRB7      30.05F
$$

NYZ052-065-067-012100-
HUDSON VALLEY

CITY           SKY/WX    TMP DP  RH WIND       PRES   REMARKS
WHITE PLAINS   MOSUNNY   86  62  44 VRB6      30.03F
NEWBURGH       MOSUNNY   84  63  48 VRB6      30.05F
MONTGOMERY     SUNNY     87  62  43 SE5       30.03F
POUGHKEEPSIE   SUNNY     86  59  39 CALM      30.02F
ALBANY         MOSUNNY   86  61  42 SE3       30.02F
$$

NJZ001-105-106-008-010-013-015-019>022-104-012100-
NEW JERSEY

CITY           SKY/WX    TMP DP  RH WIND       PRES   REMARKS
NEWARK/LIBERTY MOSUNNY   87  64  46 VRB5      30.01F
TETERBORO      MOSUNNY   88  58  36 CALM      30.00F
CALDWELL       SUNNY     89  58  34 NW6       30.01F
MORRISTOWN     PTSUNNY   90  61  37 S5        30.02F
SOMERVILLE     MOSUNNY   90  63  40 N9        29.99F HX  91
SUSSEX         SUNNY     86  62  44 NE3       30.04F
ANDOVER          N/A     85  63  47 VRB3      30.05F
TRENTON        SUNNY     89  62  40 SW7       30.00F
MILLVILLE      MOSUNNY   88  70  55 SW7       30.00F HX  93
ATLANTIC CITY  SUNNY     84  71  65 E9        30.02S
WRIGHTSTOWN    SUNNY     87  69  55 E8        29.97F HX  91
TOMS RIVER     SUNNY     84  66  54 SE8       30.03S
BELMAR         SUNNY     82  63  51 E9        30.03F
$$

PAZ047>061-062-071-012100-
EASTERN PENNSYLVANIA

CITY           SKY/WX    TMP DP  RH WIND       PRES   REMARKS
PHILADELPHIA   NOT AVBL
ALLENTOWN      SUNNY     88  64  44 NW3       30.03F
SCRANTON       SUNNY     87  61  41 W6        30.05F
$$

CTZ002-004>006-009-010-012-RIZ004-006-007-MAZ004-011-015-012100-
SOUTHERN NEW ENGLAND
 IN CT

CITY           SKY/WX    TMP DP  RH WIND       PRES   REMARKS
BRADLEY INTL   MOSUNNY   87  53  31 NW5       30.02S
HARTFORD       SUNNY     86  56  35 CALM      30.01F
DANBURY        SUNNY     84  58  40 CALM      30.04F
WTRBRY/OXFORD  MOSUNNY   84  61  45 CALM      30.07S
BRIDGEPORT     SUNNY     86  62  44 SW8       30.02F
MERIDEN        SUNNY     88  57  34 VRB5      30.01F
NEW HAVEN      SUNNY     82  63  52 SW7       30.03F
CHESTER        NOT AVBL
GROTON         SUNNY     77  67  71 SE12      30.03F
WILLIMANTIC    SUNNY     87  52  29 NE5       30.02F

 IN RI

CITY           SKY/WX    TMP DP  RH WIND       PRES   REMARKS
PROVIDENCE     MOSUNNY   83  62  49 SE10      30.02F
BLOCK ISLAND   SUNNY     77  66  69 S10       30.05S
WESTERLY       SUNNY     79  64  60 S10       30.04F

 IN MA

CITY           SKY/WX    TMP DP  RH WIND       PRES   REMARKS
BOSTON         SUNNY     75  62  64 E13       30.03F
WORCESTER      SUNNY     80  56  43 S8        30.05F
WESTFIELD      SUNNY     85  52  32 VRB3      30.02F
PROVINCETOWN     N/A     75  59  57 NE10      30.04F
NANTUCKET      SUNNY     78  62  57 E8        30.04S
$$

ANZ330-335-338-340-345-350-353-355-012100-
COASTAL MARINE OBSERVATIONS


STATION/POSITION TIME  SKY/WX   TEMP    WIND        PRES    VSBY  WAVE
                                AIR SEA DIR/SP/G                  HT/PER
                 (UTC)          (F)     (DEG/KT/KT) (MB)    (MI)  (FT/S)
NY HARB ENTRANCE 1850            76 78  130/  8/ 10 1017.2          2/ 9
4S FIRE IS       NOT AVBL
20S FIRE ISLAND  1850            75 76  120/  6/  6 1017.3          2/ 8
GREAT SOUTH BAY  1915            76 80  180/  6/  8   N/A
23SW MTP         1950            73 73  130/  6/  6 1016.9          2/ 8
HUDSON CANYON    NOT AVBL
KINGS POINT      1900            83 74  270/  3/  3 1016.2
EXECUTION ROCKS  1900            86      80/  2/  4   N/A
CENTRAL LI SOUND NOT AVBL
EASTERN LI SOUND 1900            73 70  130/  8/ 10   N/A
ROBBINS REEF     1900            77     170/ 15/ 17 1015.8
$$


>>>>>>>>>>>>>>>>>>>>>>>>>>>> KEY <<<<<<<<<<<<<<<<<<<<<<<<<<<
>                                                          <
>     SKY/WX - SKY CONDITION/PRESENT WEATHER               <
>     TMP    - TEMPERATURE IN FAHRENHEIT                   <
>     DP     - DEWPOINT IN FAHRENHEIT                      <
>     RH     - RELATIVE HUMIDITY IN PERCENT                <
>     WIND   - DIRECTION AND SPEED IN MPH                  <
>     PRES   - MEAN SEA LEVEL PRESSURE IN INCHES OF HG     <
>     WCI    - WIND CHILL INDEX                            <
>     VSB    - VISIBILITY IN MILES                         <
>     HX     - HEAT INDEX                                  <
>     TC     - TEMPERATURE IN CELSIUS                      <
>     VRB    - VARIABLE WIND DIRECTION                     <
>                                                          <
>>>>>>>>>>>>>>>>>>>>>>>>>>>> KEY <<<<<<<<<<<<<<<<<<<<<<<<<<<




USA.gov is the U.S. government's official web portal to all federal, state and local government web resources and services.